Cadillac, MI

3:00 PM EST on February 21, 2018 (GMT -0500)
Wexford County

Weather History for KCAD - January, 2013

Change the Weather History Date:

Friday, January 25, 2013

  Actual Average Record
Temperature  
Mean Temperature 14 °F -  
Max Temperature 18 °F 26 °F 51 °F (1967)
Min Temperature 11 °F 12 °F -19 °F (1959)
Degree Days  
Heating Degree Days 50    
Moisture  
Dew Point 8 °F    
Average Humidity 76    
Maximum Humidity 86    
Minimum Humidity 54    
Precipitation  
Precipitation 0.00 in - - ()
Sea Level Pressure  
Sea Level Pressure 30.04 in    
Wind  
Wind Speed 6 mph (SSE)    
Max Wind Speed 14 mph    
Max Gust Speed 18 mph    
Visibility 5 miles    
Events Snow    
Averages and records for this station are not official NWS values.
T = Trace of Precipitation, MM = Missing Value Source: NWS Daily Summary

Daily Weather History Graph

Daily Weather History Graph

Search for Another Location

Airport or City:

Trip Planner

Search our weather history database for the weather conditions in past years. The results will help you decide how hot, cold, wet, or windy it might be!

Date:

Astronomy

Jan. 25, 2013 Rise Set
Actual Time 8:06 AM EST 5:42 PM EST
Civil Twilight 7:35 AM EST 6:13 PM EST
Nautical Twilight 7:00 AM EST 6:48 PM EST
Astronomical Twilight 6:25 AM EST 7:22 PM EST
Moon 4:38 PM EST (1/25) 6:46 AM EST (1/25)
Length of Visible Light 10h 38m
Length of Day
9h 35m
Waxing Gibbous, 98% of the Moon is Illuminated
Jan 25
Waxing Gibbous
Jan 26
Full
Feb 3
Last Quarter
Feb 10
New
Feb 17
First Quarter

Hourly Weather History & Observations

Time (EST) Temp. Windchill Dew Point Humidity Pressure Visibility Wind Dir Wind Speed Gust Speed Precip Events Conditions
12:15 AM 11.3 °F 3.3 °F -1.8 °F 56% 30.36 in 10.0 mi SE 4.6 mph - N/A   Overcast
12:35 AM 11.3 °F 3.3 °F -1.5 °F 57% 30.35 in 10.0 mi SE 4.6 mph - N/A   Overcast
12:55 AM 11.3 °F 1.9 °F -2.2 °F 55% 30.35 in 10.0 mi SE 5.8 mph - N/A   Overcast
1:15 AM 11.3 °F 3.3 °F -2.4 °F 54% 30.34 in 10.0 mi SE 4.6 mph - N/A   Overcast
1:35 AM 11.3 °F 3.3 °F -2.2 °F 55% 30.32 in 10.0 mi SSE 4.6 mph - N/A   Overcast
1:55 AM 11.3 °F 0.7 °F -2.6 °F 54% 30.31 in 10.0 mi SSE 6.9 mph - N/A   Overcast
2:15 AM 11.3 °F 1.9 °F -1.7 °F 56% 30.30 in 10.0 mi South 5.8 mph - N/A   Overcast
2:35 AM 11.3 °F 1.9 °F -1.5 °F 57% 30.29 in 10.0 mi South 5.8 mph - N/A   Overcast
2:55 AM 11.3 °F 0.7 °F 0.7 °F 62% 30.28 in 7.0 mi South 6.9 mph - N/A Snow Light Snow
3:14 AM 11.3 °F 0.7 °F 0.1 °F 61% 30.27 in 10.0 mi SSE 6.9 mph - N/A   Overcast
3:35 AM 11.3 °F -0.4 °F 1.4 °F 64% 30.26 in 10.0 mi South 8.1 mph - N/A   Overcast
3:55 AM 11.3 °F -1.3 °F 2.8 °F 69% 30.25 in 10.0 mi South 9.2 mph - N/A   Overcast
4:15 AM 11.3 °F -0.4 °F 3.2 °F 70% 30.23 in 10.0 mi South 8.1 mph - N/A   Overcast
4:35 AM 11.3 °F -2.2 °F 3.2 °F 70% 30.22 in 10.0 mi South 10.4 mph - N/A   Overcast
4:55 AM 11.3 °F -0.4 °F 4.1 °F 73% 30.20 in 10.0 mi SSE 8.1 mph - N/A Snow Light Snow
5:14 AM 11.3 °F -0.4 °F 4.5 °F 74% 30.20 in 10.0 mi South 8.1 mph - N/A Snow Light Snow
5:35 AM 11.3 °F 0.7 °F 4.8 °F 75% 30.19 in 7.0 mi South 6.9 mph - N/A Snow Light Snow
5:54 AM 11.3 °F 0.7 °F 5.4 °F 77% 30.17 in 5.0 mi SSE 6.9 mph - N/A Snow Light Snow
6:15 AM 11.3 °F -0.4 °F 5.7 °F 78% 30.15 in 4.0 mi SSE 8.1 mph - N/A Snow Light Snow
6:35 AM 11.3 °F 1.9 °F 5.9 °F 79% 30.15 in 3.0 mi SSE 5.8 mph - N/A Snow Light Snow
6:54 AM 11.3 °F 5.1 °F 6.1 °F 80% 30.13 in 3.0 mi SE 3.5 mph - N/A Snow Light Snow
7:15 AM 11.3 °F 5.1 °F 6.4 °F 81% 30.13 in 3.0 mi SE 3.5 mph - N/A Snow Light Snow
7:35 AM 11.3 °F 5.1 °F 6.6 °F 81% 30.12 in 3.0 mi SSE 3.5 mph - N/A Snow Light Snow
7:54 AM 11.3 °F 1.9 °F 6.6 °F 81% 30.11 in 3.0 mi SSE 5.8 mph - N/A Snow Light Snow
8:35 AM 11.3 °F 1.9 °F 6.6 °F 81% 30.09 in 3.0 mi SE 5.8 mph - N/A Snow Light Snow
8:54 AM 11.3 °F 1.9 °F 6.6 °F 81% 30.08 in 1.8 mi SE 5.8 mph - N/A Snow Light Snow
9:15 AM 11.3 °F -0.4 °F 6.6 °F 81% 30.06 in 2.0 mi SE 8.1 mph - N/A Snow Light Snow
9:35 AM 12.6 °F -0.6 °F 7.5 °F 80% 30.06 in 2.5 mi SSE 10.4 mph - N/A Snow Light Snow
9:54 AM 13.8 °F 1.0 °F 8.4 °F 79% 30.05 in 3.0 mi SSE 10.4 mph - N/A Snow Light Snow
10:15 AM 13.8 °F 1.8 °F 8.2 °F 78% 30.05 in 2.5 mi SSE 9.2 mph - N/A Snow Light Snow
10:35 AM 13.8 °F 2.7 °F 8.1 °F 78% 30.03 in 3.0 mi SSE 8.1 mph - N/A Snow Light Snow
10:54 AM 13.8 °F 1.8 °F 7.7 °F 77% 30.02 in 3.0 mi SSE 9.2 mph - N/A Snow Light Snow
11:15 AM 14.0 °F 2.0 °F 7.7 °F 76% 30.01 in 2.5 mi SE 9.2 mph - N/A Snow Light Snow
11:34 AM 16.3 °F 4.1 °F 9.5 °F 74% 29.99 in 4.0 mi SSE 10.4 mph 16.1 mph N/A Snow Light Snow
11:55 AM 16.3 °F 4.1 °F 9.5 °F 74% 29.99 in 10.0 mi SSE 10.4 mph - N/A Snow Light Snow
12:15 PM 16.3 °F 3.4 °F 9.3 °F 74% 29.98 in 10.0 mi SSE 11.5 mph - N/A Snow Light Snow
12:34 PM 16.3 °F 2.7 °F 9.1 °F 73% 29.96 in 10.0 mi SSE 12.7 mph - N/A Snow Light Snow
12:55 PM 16.3 °F 2.1 °F 9.3 °F 74% 29.95 in 4.0 mi SSE 13.8 mph 18.4 mph N/A Snow Light Snow
1:15 PM 16.3 °F 4.1 °F 9.9 °F 76% 29.93 in 2.0 mi SSE 10.4 mph - N/A Snow Light Snow
1:34 PM 16.3 °F 4.1 °F 9.9 °F 76% 29.92 in 1.8 mi SE 10.4 mph - N/A Snow Light Snow
1:55 PM 16.5 °F 6.0 °F 10.4 °F 77% 29.90 in 2.5 mi SE 8.1 mph - N/A Snow Light Snow
2:15 PM 17.6 °F 7.3 °F 11.3 °F 76% 29.90 in 2.5 mi SSE 8.1 mph - N/A Snow Light Snow
2:34 PM 17.6 °F 5.0 °F 11.3 °F 76% 29.89 in 3.0 mi SSE 11.5 mph - N/A Snow Light Snow
2:55 PM 17.6 °F 7.3 °F 11.3 °F 76% 29.89 in 4.0 mi SSE 8.1 mph - N/A Snow Light Snow
3:15 PM 17.6 °F 10.7 °F 12.0 °F 79% 29.88 in 2.0 mi SE 4.6 mph - N/A Snow Light Snow
3:35 PM 18.3 °F 9.1 °F 12.7 °F 79% 29.88 in 2.5 mi SSE 6.9 mph - N/A Snow Light Snow
3:55 PM 18.1 °F 8.9 °F 12.7 °F 79% 29.88 in 2.5 mi SE 6.9 mph - N/A Snow Light Snow
4:15 PM 18.9 °F 9.8 °F 13.8 °F 81% 29.88 in 1.8 mi SSE 6.9 mph - N/A Snow Light Snow
4:35 PM 18.9 °F 10.8 °F 14.0 °F 81% 29.88 in 1.8 mi SSE 5.8 mph - N/A Snow Light Snow
4:55 PM 18.9 °F 12.1 °F 14.0 °F 81% 29.89 in 1.0 mi SSE 4.6 mph - N/A Snow Light Snow
5:15 PM 18.9 °F 12.1 °F 14.4 °F 83% 29.89 in 1.5 mi SSE 4.6 mph - N/A Snow Light Snow
5:35 PM 18.9 °F 13.7 °F 14.4 °F 83% 29.90 in 2.0 mi South 3.5 mph - N/A Snow Light Snow
5:55 PM 17.6 °F - 13.1 °F 83% 29.90 in 2.5 mi Calm Calm - N/A Snow Light Snow
6:15 PM 16.3 °F - 12.4 °F 84% 29.91 in 4.0 mi Calm Calm - N/A Snow Light Snow
6:35 PM 16.3 °F 9.2 °F 12.0 °F 83% 29.91 in 7.0 mi SSE 4.6 mph - N/A Snow Light Snow
6:55 PM 16.7 °F - 12.2 °F 82% 29.91 in 10.0 mi Calm Calm - N/A Snow Light Snow
7:15 PM 16.3 °F - 12.0 °F 83% 29.91 in 5.0 mi Calm Calm - N/A Snow Light Snow
7:35 PM 16.5 °F - 12.2 °F 83% 29.92 in 5.0 mi Calm Calm - N/A Snow Light Snow
7:55 PM 16.7 °F - 12.2 °F 82% 29.92 in 5.0 mi Calm Calm - N/A Snow Light Snow
8:15 PM 16.7 °F - 12.4 °F 83% 29.92 in 4.0 mi Calm Calm - N/A Snow Light Snow
8:35 PM 16.3 °F - 12.2 °F 84% 29.92 in 3.0 mi Calm Calm - N/A Snow Light Snow
8:55 PM 16.3 °F - 12.4 °F 84% 29.92 in 2.5 mi Calm Calm - N/A Snow Light Snow
9:15 PM 16.3 °F - 12.7 °F 86% 29.92 in 2.5 mi Calm Calm - N/A Snow Light Snow
9:35 PM 16.3 °F - 12.7 °F 86% 29.93 in 3.0 mi Calm Calm - N/A Snow Light Snow
9:55 PM 16.3 °F 10.8 °F 12.7 °F 86% 29.93 in 5.0 mi WSW 3.5 mph - N/A Snow Light Snow
10:14 PM 16.3 °F - 12.7 °F 86% 29.94 in 7.0 mi Calm Calm - N/A Snow Light Snow
10:35 PM 17.6 °F - 13.6 °F 84% 29.94 in 4.0 mi Calm Calm - N/A Snow Light Snow
10:55 PM 16.3 °F - 12.7 °F 86% 29.94 in 4.0 mi Calm Calm - N/A Snow Light Snow
11:14 PM 16.3 °F - 12.7 °F 86% 29.94 in 4.0 mi Calm Calm - N/A Snow Light Snow
11:35 PM 16.3 °F - 12.7 °F 86% 29.96 in 4.0 mi Calm Calm - N/A Snow Light Snow
11:55 PM 16.3 °F - 12.9 °F 86% 29.96 in 2.5 mi Calm Calm - N/A Snow Light Snow